Weather History for Annette Island, AK

Change the Weather History Date:

Sunday, November 18, 2012

  Actual Average Record
Temperature  
Mean Temperature 43 °F 39 °F  
Max Temperature 45 °F 44 °F 52 °F (2001)
Min Temperature 41 °F 35 °F 15 °F (1963)
Degree Days  
Heating Degree Days 22 26  
Month to date heating degree days 424 433  
Since 1 July heating degree days 1852 1733  
Cooling Degree Days 0    
Month to date cooling degree days 0  
Year to date cooling degree days 7  
Moisture  
Dew Point 36 °F    
Average Humidity 0    
Maximum Humidity 0    
Minimum Humidity 0    
Precipitation  
Precipitation 0.08 in 0.39 in 3.13 in (1971)
Month to date precipitation 8.90 7.68  
Year to date precipitation 91.52 86.30  
Snow  
Snow 0.00 in 0.10 in 2.90 in (1986)
Month to date snowfall 0.0 1.6  
Since 1 July snowfall T 1.7  
Since 1 September snowfall 0.0 1.7  
Snow Depth 0.00 in    
Sea Level Pressure  
Sea Level Pressure 29.16 in    
Wind  
Wind Speed 9 mph (SE)    
Max Wind Speed 20 mph    
Max Gust Speed 29 mph    
Visibility 10 miles    
Events Rain    
T = Trace of Precipitation, MM = Missing Value Source: NWS Daily Summary

Daily Weather History Graph

Daily Weather History Graph

Search for Another Location

Airport:

Trip Planner

Search our weather history database for the weather conditions in past years. The results will help you decide how hot, cold, wet, or windy it might be!

Date:

Astronomy

Nov. 18, 2012 Rise Set
Actual Time 7:25 AM AKST 3:36 PM AKST
Civil Twilight 6:44 AM AKST 4:18 PM AKST
Nautical Twilight 5:58 AM AKST 5:03 PM AKST
Astronomical Twilight 5:15 AM AKST 5:46 PM AKST
Moon 11:44 AM AKST 9:21 PM AKST
Length of Visible Light 9h 34m
Length of Day
8h 11m
Waxing Crescent, 31% of the Moon is Illuminated
Nov 18
Waxing Crescent
Nov 20
First Quarter
Nov 28
Full
Dec 6
Last Quarter
Dec 12
New

Hourly Weather History & Observations

Time (AKST) Temp. Windchill Dew Point Humidity Pressure Visibility Wind Dir Wind Speed Gust Speed Precip Events Conditions
12:34 AM 42.8 °F 37.5 °F 39.2 °F 87% 29.12 in 10.0 mi SE 9.2 mph - 0.00 in Rain Light Rain
12:53 AM 42.1 °F 37.1 °F 39.0 °F 89% 29.12 in 9.0 mi SE 8.1 mph - 0.00 in Rain Light Rain
1:21 AM 42.8 °F 39.3 °F 41.0 °F 93% 29.12 in 7.0 mi South 5.8 mph - 0.04 in Rain Light Rain
1:29 AM 42.8 °F 38.0 °F 39.2 °F 87% 29.12 in 6.0 mi SSE 8.1 mph - 0.04 in Rain Light Rain
1:53 AM 41.0 °F 35.8 °F 37.9 °F 89% 29.13 in 10.0 mi SE 8.1 mph - 0.04 in   Overcast
2:18 AM 42.8 °F 38.6 °F 39.2 °F 87% 29.13 in 10.0 mi SE 6.9 mph - N/A   Overcast
3:19 AM 41.0 °F 36.4 °F 39.2 °F 93% 29.15 in 8.0 mi SSW 6.9 mph - 0.02 in Rain Light Rain
3:53 AM 42.1 °F 38.4 °F 39.0 °F 89% 29.18 in 10.0 mi South 5.8 mph - 0.03 in   Overcast
4:53 AM 43.0 °F 39.5 °F 39.9 °F 89% 29.20 in 8.0 mi South 5.8 mph - 0.00 in Rain Light Rain
5:53 AM 43.0 °F 38.8 °F 39.0 °F 86% 29.23 in 10.0 mi Variable 6.9 mph - 0.00 in   Overcast
6:35 AM 42.8 °F 40.1 °F 39.2 °F 87% 29.23 in 10.0 mi South 4.6 mph - N/A   Overcast
6:53 AM 43.0 °F 39.5 °F 39.0 °F 86% 29.24 in 10.0 mi Variable 5.8 mph - N/A   Mostly Cloudy
7:53 AM 43.0 °F 39.5 °F 37.9 °F 82% 29.26 in 10.0 mi SSE 5.8 mph - N/A   Mostly Cloudy
8:53 AM 44.1 °F 36.5 °F 39.0 °F 82% 29.27 in 10.0 mi SSE 17.3 mph 26.5 mph 0.01 in Rain Light Rain
9:06 AM 42.8 °F 35.4 °F 37.4 °F 81% 29.27 in 10.0 mi SE 15.0 mph 20.7 mph 0.00 in   Mostly Cloudy
9:22 AM 42.8 °F 35.8 °F 37.4 °F 81% 29.27 in 10.0 mi SE 13.8 mph 23.0 mph 0.00 in Rain Light Rain
9:53 AM 44.1 °F 36.2 °F 37.0 °F 76% 29.28 in 10.0 mi SE 18.4 mph 27.6 mph 0.00 in   Mostly Cloudy
10:53 AM 44.1 °F 36.8 °F 37.9 °F 79% 29.28 in 10.0 mi ESE 16.1 mph 24.2 mph N/A   Mostly Cloudy
11:53 AM 44.1 °F 37.4 °F 37.0 °F 76% 29.26 in 10.0 mi ESE 13.8 mph 21.9 mph N/A   Mostly Cloudy
12:53 PM 44.1 °F 38.6 °F 35.1 °F 71% 29.25 in 10.0 mi ESE 10.4 mph - N/A   Overcast
1:53 PM 45.0 °F 39.7 °F 33.1 °F 63% 29.23 in 10.0 mi East 10.4 mph 17.3 mph N/A   Overcast
2:53 PM 44.1 °F 39.0 °F 33.1 °F 65% 29.21 in 10.0 mi East 9.2 mph 19.6 mph 0.00 in Rain Light Rain
3:53 PM 44.1 °F 40.8 °F 33.1 °F 65% 29.18 in 10.0 mi Variable 5.8 mph - 0.00 in   Overcast
4:53 PM 44.1 °F 40.1 °F 30.9 °F 60% 29.14 in 10.0 mi Variable 6.9 mph - N/A   Overcast
5:53 PM 42.1 °F 37.1 °F 32.0 °F 67% 29.11 in 10.0 mi ENE 8.1 mph 19.6 mph N/A   Scattered Clouds
6:53 PM 44.1 °F 38.6 °F 30.9 °F 60% 29.08 in 10.0 mi ENE 10.4 mph 19.6 mph N/A   Clear
7:53 PM 44.1 °F 39.0 °F 30.0 °F 58% 29.06 in 10.0 mi ENE 9.2 mph 17.3 mph N/A   Scattered Clouds
8:53 PM 46.0 °F 40.2 °F 28.9 °F 51% 29.06 in 10.0 mi East 12.7 mph 19.6 mph N/A   Mostly Cloudy
9:28 PM 42.8 °F 37.5 °F 35.6 °F 76% 29.07 in 10.0 mi East 9.2 mph 23.0 mph 0.01 in Rain Light Rain
9:53 PM 42.1 °F 38.4 °F 35.1 °F 76% 29.06 in 10.0 mi Variable 5.8 mph 23.0 mph 0.03 in Rain Light Rain
10:38 PM 41.0 °F 37.1 °F 37.4 °F 87% 29.04 in 10.0 mi Variable 5.8 mph - 0.03 in Rain Light Rain
10:53 PM 42.1 °F 37.7 °F 36.0 °F 79% 29.03 in 10.0 mi Variable 6.9 mph 16.1 mph 0.03 in Rain Light Rain
11:53 PM 44.1 °F 38.6 °F 35.1 °F 71% 29.03 in 10.0 mi East 10.4 mph 25.3 mph 0.00 in Rain Light Rain